Wind_Speed
11 14 16 20 23 25 28 30 30 28 25 23 21 19 18 17 17 17 17 18 18 17 15 15 16 16 16 16 16 15 14 14 13 13 13 13 13 14 14 13 14 16 17 18 18 18 19 19 19 20 20 20 20 20 21 21 20 20 19 18 17 16 15 15 14 15 16 17 16 15 15 14 13 14 15 14 15 16 16 17 18 20 21 23 26
13 16 20 22 25 28 30 31 29 26 23 21 21 20 18 18 17 17 19 20 20 19 17 16 16 16 15 15 15 14 13 12 12 11 11 12 12 12 12 11 12 14 15 16 17 18 19 19 18 19 21 21 20 20 21 21 21 21 20 20 18 18 17 16 17 17 16 17 18 17 16 15 14 14 14 14 15 15 16 16 16 18 21 24 25
17 20 23 25 28 30 31 29 27 23 22 21 20 20 19 19 18 18 20 21 20 20 19 17 17 15 13 13 14 12 11 11 11 10 11 11 12 11 11 11 11 12 13 14 16 17 18 18 18 18 19 20 20 20 19 19 20 21 21 20 19 19 19 18 18 18 18 17 18 18 16 15 15 15 14 14 14 14 14 15 16 17 20 23 26
21 24 26 29 31 32 31 28 26 23 22 22 21 20 20 20 19 18 20 21 21 20 19 17 16 14 11 11 12 12 11 11 11 10 10 11 11 10 10 10 10 11 11 12 14 14 15 16 17 17 18 19 19 19 19 18 19 19 20 20 20 19 20 19 19 19 20 19 18 18 17 15 15 15 15 15 14 13 12 13 15 17 18 21 24
24 27 30 31 32 31 29 26 25 24 24 23 22 21 21 20 19 19 20 21 21 19 17 16 15 14 12 12 12 12 11 11 11 11 11 11 10 10 10 10 10 10 10 11 11 12 12 12 13 14 15 16 17 18 18 17 18 18 18 19 19 19 20 20 20 20 21 21 20 19 19 17 16 15 15 15 15 14 12 12 13 15 17 20 22
27 30 33 33 32 29 26 24 25 25 25 24 24 22 21 20 18 17 18 20 20 18 16 15 14 13 13 13 12 12 11 11 11 11 11 11 10 9 9 9 9 10 10 9 9 9 9 9 9 10 12 13 13 14 15 15 16 17 17 18 18 18 19 20 20 21 21 22 22 21 21 20 19 18 17 16 16 15 14 14 14 15 16 18 20
28 31 33 33 30 27 24 23 24 25 25 25 25 24 22 20 17 15 15 17 19 18 15 13 12 12 12 12 12 12 12 11 11 11 11 10 10 9 9 9 9 9 9 9 8 8 7 7 8 9 10 10 11 11 12 12 12 14 15 16 16 17 18 19 20 21 22 22 22 22 22 22 22 21 20 18 17 17 16 16 16 16 16 17 18
30 32 31 29 27 25 23 22 23 24 24 24 24 23 22 20 17 15 14 14 16 18 16 13 11 12 12 11 10 10 10 10 10 10 10 10 9 9 8 8 8 9 9 9 9 8 7 7 8 9 9 8 9 10 10 10 10 11 11 12 14 15 16 17 19 20 21 21 22 21 21 21 22 22 22 21 19 18 18 18 18 17 17 17 16
30 30 28 26 25 24 23 22 22 23 23 23 23 22 21 19 17 16 16 15 15 16 16 14 13 12 12 11 10 9 9 9 9 9 9 9 9 8 7 7 7 8 8 8 8 8 8 8 8 9 8 8 8 9 9 9 9 9 9 9 11 13 14 16 17 19 20 20 20 20 20 21 21 22 22 22 21 20 20 19 19 19 19 18 17
27 25 24 24 24 23 21 20 21 21 21 22 22 20 18 17 16 16 16 14 13 13 14 15 14 13 12 12 11 10 9 9 9 9 9 9 9 9 8 8 7 7 7 7 8 8 8 8 9 8 8 8 8 8 8 8 8 8 8 8 9 10 11 14 16 17 18 18 18 18 18 19 20 21 21 21 21 22 21 21 20 20 21 21 19
22 21 22 22 23 22 20 19 19 19 19 20 19 17 15 15 15 15 14 12 11 12 12 13 13 13 13 13 13 12 12 11 11 11 10 10 9 9 10 10 9 8 8 7 7 7 7 8 8 8 8 8 8 8 7 7 7 7 8 8 7 7 9 11 13 15 15 16 16 16 16 16 17 20 22 22 21 21 22 21 20 20 22 22 21
19 19 19 19 20 21 19 17 17 16 16 16 16 15 14 13 12 12 11 10 10 11 11 12 12 13 13 13 14 14 14 13 13 12 12 11 11 10 10 11 11 10 9 8 7 7 7 7 7 8 8 8 8 8 7 7 7 7 7 7 7 8 8 8 8 10 12 14 14 15 15 15 15 17 19 21 22 22 22 22 21 21 22 23 22
17 17 16 17 17 18 17 15 14 14 13 13 14 13 12 11 9 9 9 8 9 10 10 11 12 12 13 13 14 14 14 14 14 14 14 13 13 12 12 11 11 11 11 9 9 8 8 8 8 8 8 8 8 8 8 7 7 7 7 7 8 8 8 7 7 8 10 11 11 12 13 14 14 15 16 18 21 23 24 24 22 22 22 23 23
15 14 13 14 14 14 14 12 11 11 11 12 12 11 10 8 8 8 9 8 9 10 10 11 12 12 12 13 13 13 14 15 15 15 15 15 15 14 13 13 12 12 12 11 11 10 10 9 9 8 8 8 8 9 9 8 8 8 7 8 8 8 8 8 8 8 9 9 9 10 10 11 13 14 14 15 17 20 23 24 24 24 24 24 24
12 12 11 12 12 12 12 11 10 10 10 10 9 10 9 8 7 8 9 9 9 10 11 11 11 11 12 12 13 13 15 16 16 16 16 17 17 16 15 14 14 13 13 12 11 11 11 10 10 9 8 8 8 8 9 10 9 9 9 9 8 8 8 9 10 10 9 9 9 9 9 10 10 12 14 15 14 16 19 21 24 25 25 25 25
11 11 11 11 10 10 10 10 9 8 8 8 9 9 10 8 7 8 9 9 10 11 11 11 11 11 11 12 13 13 14 15 16 17 17 18 18 17 17 16 14 14 14 13 12 11 11 11 10 10 9 9 8 8 8 9 9 10 9 9 9 10 9 10 10 10 10 10 10 10 9 9 11 13 14 14 13 14 15 17 19 23 25 27 27
12 12 11 10 9 9 10 9 8 8 8 8 8 9 10 8 7 7 8 8 9 11 11 11 11 11 11 11 12 13 14 15 15 16 17 18 18 18 18 17 16 15 14 14 12 10 10 10 10 9 9 9 9 9 8 9 9 9 9 9 10 10 11 11 11 11 11 12 11 10 10 11 13 13 12 12 12 13 15 15 16 18 22 25 28
12 12 11 10 9 9 9 8 7 7 7 7 7 9 9 8 7 7 7 8 9 10 10 10 10 10 11 12 13 15 16 16 16 18 19 20 20 20 19 18 17 16 15 14 13 11 10 10 10 9 9 9 9 9 9 9 8 8 8 8 9 10 10 11 12 12 12 13 12 10 10 12 14 14 12 11 12 13 14 14 15 17 19 22 25
11 10 9 9 9 8 8 8 6 6 6 6 7 9 9 8 8 8 9 8 8 9 9 9 10 10 11 13 14 15 16 17 17 19 21 21 22 22 21 20 18 16 14 14 14 13 12 12 11 11 10 10 10 10 9 9 8 8 8 8 8 9 10 11 11 12 12 13 12 11 11 12 14 14 14 13 13 12 12 12 14 16 17 19 21
9 9 9 9 9 9 9 9 8 7 7 7 8 8 8 8 8 9 9 8 7 7 7 8 9 11 12 13 14 15 16 17 18 20 21 22 23 23 22 21 20 17 15 14 14 13 13 13 12 11 10 10 10 9 9 9 8 7 8 7 7 8 10 10 10 11 12 12 11 11 12 13 14 14 13 14 14 13 11 11 13 14 16 17 19
10 11 11 11 10 10 10 10 9 8 8 9 8 8 8 8 8 9 9 8 7 6 6 7 9 10 11 12 14 16 16 17 19 20 21 22 23 24 24 23 21 19 16 14 14 14 13 13 12 11 10 9 8 8 8 8 7 6 6 7 6 7 9 9 9 10 11 10 10 11 12 13 13 13 12 13 14 14 12 12 13 14 14 15 17
13 14 14 13 12 12 12 11 10 9 10 10 9 9 8 7 6 7 8 8 8 7 7 8 9 10 11 12 14 16 17 17 18 20 21 22 23 25 25 24 23 21 18 15 14 14 14 14 13 12 10 9 8 7 7 7 6 4 4 4 5 7 8 7 7 9 10 10 10 11 12 11 11 12 12 12 13 14 14 12 13 14 14 14 14
15 15 15 15 15 15 14 13 11 11 11 11 10 9 8 6 6 6 7 8 8 7 8 9 10 11 13 14 16 17 18 19 19 20 21 22 24 25 26 25 24 22 19 16 15 14 14 14 14 12 10 9 8 7 6 7 7 5 3 3 4 5 6 6 6 8 8 9 9 10 11 10 10 11 11 11 12 13 13 12 13 14 14 13 12
15 15 14 15 15 15 14 13 12 11 11 10 9 8 7 6 6 7 7 8 8 8 8 9 10 12 14 15 17 17 18 19 20 21 22 23 24 25 25 25 24 23 21 18 16 14 14 14 13 12 10 9 8 8 7 7 7 6 4 4 4 3 4 4 5 6 6 7 8 9 9 9 9 10 11 10 11 12 12 12 12 13 13 12 12
13 14 14 14 14 13 13 12 11 11 11 9 8 7 6 6 7 7 8 8 9 9 10 11 12 13 14 15 15 16 17 19 20 21 22 22 22 24 25 25 24 23 22 20 17 15 13 12 12 11 10 9 9 9 8 7 6 5 5 4 4 3 3 4 4 4 5 5 6 7 8 8 8 10 10 10 10 10 11 11 11 12 13 12 12
12 12 12 13 12 12 12 11 11 11 10 9 8 7 6 6 7 7 8 9 9 10 11 12 13 13 15 15 15 16 18 19 20 20 21 21 21 22 24 25 24 24 23 21 18 16 14 13 11 11 10 10 9 8 8 7 6 5 4 4 3 3 3 4 4 4 5 5 5 7 7 7 8 9 9 9 9 9 10 11 11 11 11 11 11
11 11 11 11 11 11 11 10 9 9 9 9 9 9 8 8 8 8 9 9 10 11 11 12 12 13 14 14 15 17 20 21 20 19 18 19 20 21 23 24 23 23 22 20 18 16 15 13 11 11 11 11 9 8 7 7 6 5 4 4 3 3 3 4 4 4 5 5 5 7 7 7 8 9 9 8 7 8 9 10 9 10 10 10 11
11 12 12 11 10 10 10 10 9 9 9 9 9 10 10 10 10 11 11 11 11 12 11 11 12 12 13 14 16 18 21 22 21 18 16 17 19 20 21 22 22 22 21 19 17 16 14 12 11 11 10 9 9 8 8 8 7 5 4 4 3 3 2 2 3 3 4 4 5 6 7 7 8 9 9 8 8 8 9 9 8 9 10 10 11
12 13 13 12 12 11 11 11 11 11 11 11 11 11 11 10 11 12 12 12 12 12 12 11 12 13 14 15 16 19 20 21 20 17 15 16 17 19 20 21 21 21 19 17 16 15 12 10 10 9 8 7 7 8 9 8 7 5 4 4 3 3 3 3 3 3 3 4 4 5 5 6 7 7 8 8 8 8 9 9 8 9 10 10 12
11 12 12 13 14 13 12 11 12 12 12 12 12 11 11 11 11 12 13 13 13 13 12 12 12 14 15 15 17 20 20 20 18 16 15 16 17 18 19 20 20 19 18 16 15 13 10 8 8 8 6 6 7 8 9 9 7 6 5 5 4 4 4 3 3 3 3 3 4 4 5 5 6 6 7 8 8 8 9 9 8 9 10 11 12
10 11 11 13 13 13 12 11 11 12 12 12 12 11 11 11 12 12 12 12 12 13 12 12 13 14 15 15 17 19 19 18 17 17 17 17 17 19 19 18 17 17 16 15 13 12 9 7 7 7 5 5 6 7 8 8 7 6 6 5 4 5 5 4 4 4 4 4 4 5 5 5 5 6 6 7 8 7 8 9 9 9 10 11 13
10 10 11 11 12 12 12 11 11 11 11 11 12 12 12 11 12 12 12 12 12 12 12 12 13 14 15 16 17 17 17 16 16 17 17 16 16 17 17 16 15 14 15 15 13 12 9 6 5 5 5 5 6 7 7 7 7 6 6 5 4 5 5 4 5 5 5 5 5 6 6 6 6 6 6 7 7 7 8 9 9 9 9 11 13
9 10 10 10 11 12 12 10 9 10 10 10 11 12 13 13 12 12 12 12 13 13 13 13 13 13 15 16 17 16 16 16 17 17 16 15 15 15 14 14 13 13 14 15 14 13 10 6 4 4 5 4 5 6 6 6 6 7 7 6 5 5 5 5 5 6 6 6 6 6 7 6 6 6 7 7 7 7 7 8 8 8 9 11 13
9 9 9 9 10 11 11 10 9 10 10 11 12 13 15 15 14 13 12 12 12 13 13 13 13 14 15 16 16 16 16 17 18 17 15 14 13 13 13 13 13 12 13 14 14 14 12 7 4 3 4 4 5 6 6 6 6 7 8 8 8 7 7 6 7 7 7 8 8 8 8 8 7 7 8 8 8 8 8 8 8 7 8 10 12
9 9 9 9 10 10 11 11 10 11 12 12 14 16 17 17 16 14 13 13 14 14 15 15 15 16 16 16 17 17 17 17 17 16 15 14 13 13 14 14 13 13 13 13 13 14 13 9 5 4 4 4 5 6 7 7 7 7 8 9 9 9 9 8 8 8 8 8 9 9 9 8 8 8 8 9 10 10 9 9 8 8 8 10 11
7 8 9 10 9 9 11 11 11 12 13 15 16 18 19 18 15 14 14 15 15 16 18 18 18 17 16 17 18 18 17 17 17 16 15 14 14 14 15 15 14 13 13 13 13 13 13 11 8 6 5 5 6 7 8 8 7 7 8 8 9 9 9 8 8 8 8 8 9 10 9 8 8 8 8 9 10 10 10 10 9 9 9 10 11
8 8 8 10 9 8 9 11 11 12 14 16 17 19 18 15 13 13 14 16 17 18 18 18 18 17 17 18 19 18 16 17 17 17 16 15 15 15 15 15 15 14 14 14 13 12 13 13 10 7 6 6 7 8 10 10 9 8 8 8 8 9 9 9 9 8 8 7 8 9 9 8 9 9 9 9 10 10 10 10 10 10 9 9 10
9 8 8 9 9 9 10 13 14 14 15 15 16 16 15 14 14 15 17 18 19 20 20 18 17 17 17 18 20 19 17 16 17 18 18 17 17 17 16 16 16 15 15 15 14 13 13 13 11 10 9 8 8 9 10 11 10 9 8 8 9 9 10 10 10 9 8 7 7 8 8 8 8 10 10 10 10 10 9 9 9 9 8 8 8
8 8 8 10 10 11 13 15 16 16 15 15 15 14 15 16 17 17 18 19 20 21 21 20 19 18 17 18 19 19 18 17 17 18 19 19 19 18 17 17 16 16 15 15 15 14 13 12 12 11 11 10 10 10 11 11 11 10 9 9 9 10 10 11 11 10 9 8 7 7 7 7 8 9 10 10 10 10 9 9 9 8 7 6 7
8 8 8 10 12 12 13 14 16 16 15 15 14 13 14 16 17 17 18 19 20 21 20 20 21 20 19 18 18 17 17 16 16 17 18 20 20 19 18 17 17 16 16 16 15 14 13 12 12 12 12 11 10 10 11 12 12 12 10 9 9 10 11 12 11 10 9 9 8 7 6 6 6 8 9 10 10 10 10 9 8 8 7 6 6
9 9 9 10 11 11 11 13 15 14 13 14 15 15 15 17 18 19 20 21 21 21 20 20 20 21 21 21 20 18 17 16 16 17 18 19 21 21 19 18 17 17 17 17 16 16 15 14 13 13 13 12 11 10 11 12 13 13 13 11 10 10 12 12 11 10 10 10 9 8 7 7 7 7 9 10 11 11 10 9 9 8 7 6 6
9 10 10 11 11 10 11 13 15 13 11 13 15 17 18 19 20 21 22 22 22 21 20 20 21 21 21 22 21 21 20 19 18 18 19 19 20 21 20 19 18 18 17 17 17 17 16 15 15 15 15 13 12 11 12 13 13 14 14 13 11 10 12 13 12 11 11 11 10 10 9 8 8 8 9 10 11 11 11 10 9 8 7 7 6
9 10 11 11 11 11 11 13 14 13 12 13 16 18 21 23 24 24 23 21 20 20 21 21 21 22 22 22 22 22 21 21 21 20 19 19 19 20 20 20 19 18 18 18 18 18 17 17 17 17 16 15 14 14 13 14 14 15 15 15 13 11 12 13 12 11 11 11 11 11 10 9 9 10 10 10 11 11 11 11 10 9 8 7 6
9 11 12 11 10 11 12 12 12 12 12 15 18 20 23 25 26 26 24 20 18 18 19 20 20 21 22 22 22 22 22 22 22 21 20 19 18 18 18 19 18 17 18 18 19 19 19 19 19 18 17 17 17 17 16 15 15 14 15 15 14 12 13 14 12 11 12 12 12 12 12 11 10 10 11 11 11 12 11 11 11 10 9 8 6
11 12 12 11 10 10 11 11 11 11 13 16 19 21 23 25 25 25 23 20 18 17 17 18 19 20 20 20 21 22 22 23 23 22 21 20 18 18 18 18 17 17 17 18 19 19 20 20 20 19 18 17 18 18 17 17 16 15 14 15 14 13 13 14 13 12 12 13 13 13 12 12 11 11 11 12 12 12 12 12 11 11 10 9 7
12 11 11 10 9 9 10 11 11 12 14 17 20 22 23 23 23 21 19 17 16 16 16 17 18 19 18 17 18 19 20 21 22 22 22 20 19 18 18 18 17 16 17 18 19 19 20 20 20 19 19 18 18 18 18 17 16 15 15 15 15 14 12 13 13 13 13 13 14 14 13 12 12 12 12 12 12 12 12 12 12 12 11 9 8
12 11 10 10 10 11 11 11 11 12 15 18 21 22 22 21 20 18 15 14 15 16 17 17 17 17 17 16 17 18 19 19 19 19 20 19 18 18 18 18 17 17 18 18 19 19 19 19 19 19 19 18 17 17 17 16 17 17 16 15 15 14 12 11 12 12 13 13 14 14 13 13 12 12 12 13 13 13 12 12 12 12 11 10 9
11 10 9 10 11 12 11 11 12 13 16 19 22 22 21 19 16 14 13 14 15 17 17 17 17 17 17 17 17 18 18 19 19 19 19 19 18 17 17 17 17 18 18 18 18 18 18 19 19 19 18 18 17 16 16 16 17 17 17 16 14 13 12 11 11 12 13 13 14 14 13 13 13 13 13 13 13 13 13 13 13 13 11 10 9
10 9 10 12 12 11 10 10 12 15 18 20 21 21 19 16 13 12 13 14 15 16 17 18 18 18 18 18 18 18 18 19 19 19 19 19 18 17 16 16 17 17 17 17 17 17 17 18 18 18 18 18 17 15 15 16 17 17 17 15 14 12 12 11 11 12 12 13 14 14 14 14 13 13 13 14 14 14 13 13 13 13 12 11 10
12 11 12 13 12 10 9 10 13 17 18 20 20 18 16 13 12 11 11 13 14 15 16 18 19 20 20 19 19 19 19 19 18 18 19 20 19 17 16 16 16 16 16 16 16 16 17 17 17 17 17 17 16 14 14 15 17 17 16 15 13 12 12 12 12 12 13 14 14 14 14 14 14 14 14 14 14 14 14 13 13 13 12 11 10
14 13 14 13 10 9 9 11 14 17 19 21 21 17 14 11 10 10 11 13 15 16 17 19 21 22 21 20 19 19 19 18 17 16 17 18 19 18 17 16 16 15 15 15 15 16 16 17 17 17 17 16 14 13 13 14 15 16 16 14 13 12 12 11 11 12 12 13 14 14 14 14 14 14 14 14 14 14 14 13 13 13 12 11 10
Wind_Direction
303 304 306 310 314 317 321 323 322 321 317 315 317 319 320 320 319 317 312 310 311 316 320 316 311 314 316 311 307 306 303 299 296 295 293 292 287 281 279 278 276 272 271 272 272 269 268 266 264 263 262 260 258 259 259 259 261 261 260 257 253 250 250 252 255 252 247 243 240 238 235 232 229 224 224 227 222 221 227 230 229 229 227 225 223
304 307 310 314 319 322 324 323 321 320 317 315 316 318 320 319 317 316 313 311 314 318 321 320 319 321 320 310 306 307 304 301 301 298 295 292 290 290 291 290 283 277 275 273 271 268 266 264 263 262 262 261 260 259 259 259 258 258 257 256 253 249 246 248 254 256 254 249 244 241 240 240 239 232 230 236 233 225 224 226 226 225 223 224 225
308 310 314 319 323 324 324 322 320 318 316 314 315 317 318 318 317 317 314 313 316 320 323 325 326 327 324 311 308 311 308 306 306 302 297 293 293 297 301 299 292 285 280 275 270 267 266 266 265 263 263 263 263 261 260 260 258 257 255 254 252 250 247 245 248 252 255 253 248 244 242 243 245 243 240 242 242 235 227 223 223 221 217 218 223
310 314 319 323 324 323 321 320 318 317 316 315 315 317 319 320 320 320 317 316 318 322 326 330 332 331 326 317 316 319 317 312 310 306 301 298 298 302 303 299 292 286 282 279 277 275 272 271 271 270 268 267 266 265 263 261 260 259 257 255 251 247 247 246 245 246 248 250 251 249 246 244 245 246 244 243 246 245 239 230 226 222 217 215 219
315 319 321 322 320 319 319 319 318 317 316 315 316 319 321 323 325 325 321 319 320 325 331 336 339 334 328 326 326 325 325 322 317 313 309 306 305 305 304 299 292 288 285 283 282 282 279 277 277 278 275 272 270 269 267 264 261 260 258 257 253 247 244 244 245 245 245 246 247 249 249 248 246 246 245 244 245 247 246 241 233 227 225 223 222
318 319 318 317 317 318 319 319 317 316 315 314 316 319 321 323 327 328 325 322 321 328 339 344 342 335 330 333 335 332 332 330 323 319 317 316 315 312 309 303 296 293 291 288 285 284 285 287 286 282 278 278 278 275 272 268 263 260 258 257 257 254 247 244 245 246 245 245 246 246 247 248 247 246 246 245 245 244 243 242 240 234 231 230 230
315 314 314 314 315 317 319 317 315 315 315 316 317 319 320 322 326 328 329 326 323 328 344 352 342 334 335 341 343 339 336 334 331 328 326 327 327 325 321 315 308 302 299 298 297 295 298 298 288 278 277 281 285 284 280 275 268 263 260 259 257 256 253 249 246 245 245 245 246 246 245 245 245 246 245 245 243 242 241 240 239 238 236 234 234
311 312 312 312 314 316 317 315 314 315 316 316 317 319 322 325 329 332 336 337 330 331 343 356 349 342 345 353 355 350 345 343 340 336 335 338 338 338 334 326 317 311 308 307 306 305 306 299 284 277 278 281 283 283 283 282 276 269 264 261 256 253 253 252 250 248 247 246 245 244 243 244 246 246 245 243 242 241 240 241 241 240 238 237 237
309 310 310 310 312 313 313 314 314 315 316 318 321 324 326 330 334 338 344 347 343 339 343 353 358 359 1 4 7 6 1 354 348 343 345 347 346 345 341 330 321 316 314 311 307 306 303 294 286 283 283 280 276 275 276 277 277 276 272 264 256 251 248 249 251 251 250 250 248 244 242 242 244 248 248 244 240 238 238 241 244 244 242 239 238
307 308 309 309 309 309 313 315 315 317 320 323 326 329 331 336 340 344 349 352 354 353 351 355 4 9 11 11 11 9 6 1 356 353 353 352 348 345 342 335 330 327 324 319 311 308 301 293 290 290 290 285 280 279 279 276 276 279 279 274 268 261 251 246 248 250 252 254 255 253 247 242 241 244 248 246 241 237 237 238 240 243 244 241 236
305 306 307 307 308 312 317 319 319 321 325 328 332 334 338 343 344 347 353 357 0 4 3 3 8 12 13 13 9 6 4 3 1 359 357 356 353 349 344 341 339 337 335 326 316 309 301 297 299 299 295 290 285 284 285 284 283 283 283 284 282 273 259 251 250 251 252 254 255 256 254 248 241 239 241 244 243 239 237 237 237 239 242 241 237
304 306 308 309 312 317 321 322 323 326 329 334 341 346 349 348 347 351 358 1 5 10 10 9 11 13 15 14 11 9 8 8 8 7 5 5 3 1 358 353 349 347 343 333 323 314 306 305 307 305 301 296 291 288 286 287 289 288 286 286 283 277 273 270 263 255 250 247 246 247 248 249 246 239 235 237 239 239 237 236 236 237 239 240 239
307 311 315 318 319 323 325 327 331 333 337 344 352 357 356 354 355 359 4 7 12 17 19 19 20 22 24 24 20 18 17 15 15 13 9 8 6 7 8 5 360 355 347 340 338 331 321 316 313 309 307 304 299 296 293 291 291 290 290 287 285 286 288 287 277 263 257 253 248 245 243 244 247 245 239 233 234 236 237 237 235 235 237 239 238
312 317 323 325 326 330 334 338 342 345 350 357 2 4 3 6 11 12 12 14 18 25 30 30 30 32 34 31 25 22 20 16 13 10 7 5 2 1 4 3 360 357 348 343 346 342 331 327 322 315 311 306 302 299 296 294 292 290 289 288 287 290 291 286 278 270 265 262 257 252 246 243 245 249 248 242 236 235 237 238 238 237 236 237 236
322 328 331 332 334 339 344 348 350 354 1 9 14 16 16 18 20 19 19 21 24 31 35 33 31 32 33 30 26 25 23 17 13 10 7 5 2 360 1 359 355 353 347 344 347 344 335 333 330 324 317 310 303 297 293 291 290 287 285 285 285 284 283 282 280 277 273 268 264 260 255 250 248 249 251 250 244 240 239 239 240 241 241 240 237
337 341 342 341 344 349 352 355 356 1 13 20 24 26 26 26 26 25 27 28 29 31 29 27 28 29 30 30 28 27 24 18 13 10 7 5 1 359 359 357 354 351 346 343 346 345 336 332 330 326 322 315 306 297 291 288 286 284 283 282 281 280 278 277 277 278 278 275 271 269 265 259 253 249 250 253 252 250 247 243 241 243 245 245 243
343 348 350 352 357 1 1 3 5 15 27 29 28 29 31 33 34 32 32 30 29 28 24 24 27 29 30 29 25 23 20 13 9 7 5 3 359 356 356 355 352 350 345 340 341 341 334 329 328 327 324 319 311 304 296 289 285 283 281 278 276 275 274 274 276 276 276 274 273 273 272 267 262 259 258 257 255 252 250 247 242 241 242 245 247
343 345 350 357 7 11 8 5 10 27 39 36 31 33 36 37 36 34 33 29 28 27 23 21 24 28 28 24 18 16 13 8 7 6 5 4 1 358 357 354 351 350 344 337 336 339 336 331 330 330 329 324 318 312 305 297 292 287 282 278 275 271 269 268 270 271 272 273 274 274 273 271 271 271 269 261 252 249 249 249 246 242 241 242 246
343 343 350 3 15 19 15 14 27 44 46 38 35 38 40 39 39 40 35 29 27 24 19 19 21 23 24 21 14 11 8 5 6 6 5 4 3 1 359 355 353 350 342 335 335 338 336 333 332 331 331 330 326 321 314 307 302 294 286 280 275 272 268 265 266 266 267 270 274 275 273 269 269 272 272 268 262 256 253 251 248 246 244 243 244
357 1 10 17 24 28 28 33 47 55 50 44 42 43 45 47 49 48 39 31 27 21 17 20 19 19 21 17 11 9 7 4 4 4 3 3 3 2 360 357 354 350 343 336 335 336 333 331 330 329 331 331 328 325 319 312 307 299 290 283 276 272 269 267 266 265 264 266 268 269 268 266 267 269 272 273 271 267 259 253 251 249 247 244 243
23 28 32 31 33 35 37 40 46 50 49 46 44 48 56 60 58 51 44 38 35 29 24 21 17 14 14 10 5 6 6 3 0 359 360 1 2 1 359 357 354 351 346 340 337 334 332 331 331 331 333 330 326 326 323 316 310 303 294 290 282 272 269 268 266 265 264 264 262 260 260 261 265 269 270 271 272 271 265 256 252 252 250 247 245
40 42 43 45 48 49 48 46 46 49 50 46 47 54 62 64 58 48 44 41 37 30 23 17 13 9 5 1 2 3 1 359 358 356 355 357 358 357 356 356 354 352 348 345 339 334 333 334 334 336 338 335 330 332 330 324 326 326 307 290 277 269 268 268 266 264 265 264 262 261 260 260 263 265 265 265 267 268 266 261 257 255 254 253 251
49 52 53 57 59 58 56 51 49 53 54 50 50 55 56 53 42 34 33 34 30 23 16 10 7 4 360 359 3 4 359 355 355 355 354 354 354 353 354 355 355 352 349 346 342 338 337 338 339 342 346 344 341 342 340 338 345 353 339 292 272 271 274 270 263 262 265 266 265 265 266 266 264 263 261 259 260 263 265 263 259 259 258 257 255
55 59 61 63 63 63 62 58 54 56 56 52 49 47 41 35 27 19 17 16 12 8 5 1 359 359 359 1 5 7 1 354 352 353 354 353 352 351 353 355 355 353 350 347 344 343 342 342 343 346 350 353 352 349 346 345 348 352 342 311 288 286 285 272 263 264 267 267 266 267 270 271 269 267 264 261 260 263 265 264 261 260 260 257 253
57 63 65 65 65 64 62 57 52 51 49 44 40 35 27 20 13 7 6 4 360 357 355 353 353 355 357 359 359 359 357 351 348 349 350 351 351 351 352 353 354 353 351 347 345 347 346 345 347 347 349 356 355 346 342 344 348 351 341 322 314 316 300 281 276 276 273 270 271 273 273 273 271 269 269 269 266 264 264 264 262 261 261 260 257
55 62 67 66 65 62 59 55 48 44 40 33 28 26 20 12 5 359 355 352 350 351 350 349 352 352 351 350 348 348 349 347 343 342 344 348 350 350 351 351 351 352 351 347 345 347 346 345 347 347 349 356 353 342 340 348 357 0 346 331 334 338 314 298 296 293 285 281 282 280 278 278 276 273 272 274 273 269 265 261 261 262 263 261 258
50 54 59 60 60 57 56 54 46 40 35 25 19 18 13 7 2 355 349 343 342 344 346 347 349 348 347 349 349 349 348 346 342 339 339 344 348 350 350 349 348 350 351 348 346 347 344 342 347 352 354 354 348 341 343 353 2 4 349 337 339 334 317 313 311 301 291 287 284 282 283 282 279 278 280 281 280 276 271 266 262 261 260 258 254
46 46 46 49 52 50 50 48 39 32 25 16 11 9 3 358 356 353 349 345 342 343 344 344 343 342 344 349 352 351 349 347 345 341 338 342 346 347 347 346 346 348 351 349 348 346 341 339 348 358 360 352 342 339 346 356 5 3 351 345 343 330 322 325 314 300 295 289 282 280 281 281 279 281 286 287 283 277 272 269 265 260 256 254 254
43 42 39 39 41 40 39 37 29 22 15 8 6 3 356 353 353 350 348 347 346 345 345 342 338 339 342 345 346 347 348 349 348 346 342 343 345 345 345 344 343 346 350 351 350 348 343 341 349 356 356 345 339 341 349 356 0 357 351 354 355 348 350 353 340 326 318 306 291 282 279 280 283 285 286 284 279 273 270 269 266 262 257 253 254
42 39 34 31 30 28 27 28 24 19 13 6 2 357 352 351 351 349 347 346 346 346 345 341 337 338 341 341 341 342 345 348 349 347 344 343 343 342 343 343 343 345 349 353 355 355 348 341 348 352 348 341 344 352 358 357 353 353 358 358 359 7 11 9 5 355 339 326 315 306 298 292 290 289 284 278 275 272 272 270 263 260 259 258 257
41 38 33 28 24 21 21 22 21 18 14 9 5 0 354 350 348 349 350 348 345 345 344 341 339 338 339 340 339 339 342 345 347 346 342 341 340 339 341 344 345 347 349 352 358 1 353 340 345 350 345 346 357 6 11 3 350 351 5 5 3 15 19 18 20 16 0 353 348 337 327 315 303 295 288 283 282 278 274 269 261 256 257 258 259
39 36 30 24 20 20 21 20 18 16 13 11 10 7 3 357 352 351 353 350 347 346 344 342 342 339 338 340 341 341 342 345 347 346 343 341 339 338 342 348 351 353 354 355 359 5 1 346 342 344 337 345 3 12 15 7 350 349 2 2 357 6 11 9 11 9 359 354 350 344 337 325 313 308 302 293 289 284 276 271 265 258 254 254 255
35 32 24 16 14 17 18 17 17 16 12 8 6 2 0 359 355 352 352 351 349 350 349 348 347 343 342 347 349 347 345 345 347 347 346 344 342 341 346 355 356 355 356 358 2 7 4 348 332 331 326 334 358 5 3 357 345 340 342 340 336 341 346 349 350 349 344 340 336 332 328 321 317 318 313 305 299 292 284 279 275 267 259 255 254
27 22 14 10 10 11 11 9 7 8 6 1 357 355 354 353 348 344 347 350 350 350 352 352 349 346 347 351 352 351 350 349 350 350 349 348 347 346 348 356 357 353 353 357 2 7 5 350 321 317 320 324 340 345 342 339 334 327 325 326 325 324 326 330 335 335 333 330 325 322 319 315 315 316 312 309 306 300 294 289 283 273 263 258 257
20 12 4 4 5 6 5 358 354 358 357 349 347 353 354 351 346 345 348 352 354 354 354 355 351 347 347 349 351 354 357 356 355 354 352 352 353 350 349 354 357 354 353 356 1 6 7 356 330 313 315 322 329 327 321 320 321 318 318 322 323 319 317 322 326 326 327 326 321 318 315 313 311 310 309 309 308 303 300 295 288 277 266 259 258
14 6 359 356 357 2 5 358 349 348 344 340 347 358 359 355 356 360 0 2 5 4 2 359 354 348 347 349 350 351 354 356 358 359 356 354 355 354 351 353 354 352 352 355 359 3 5 359 343 322 316 323 325 318 311 310 314 316 320 324 322 314 310 313 316 318 322 321 316 314 317 316 311 309 310 311 309 307 303 297 288 280 272 263 260
3 359 352 347 346 354 1 358 349 341 339 346 359 6 2 359 9 19 17 14 15 14 10 5 358 353 353 356 355 353 354 356 359 2 1 360 359 357 355 355 353 351 351 355 358 0 0 357 352 342 336 338 332 318 308 306 310 318 325 327 318 306 301 302 303 306 311 313 310 312 318 320 314 312 314 315 313 311 307 299 290 284 277 271 266
355 355 343 333 337 349 355 352 348 343 347 0 10 10 6 10 20 24 22 18 16 14 13 9 3 360 1 2 2 3 3 1 360 1 3 2 359 357 355 356 354 350 349 350 353 355 353 350 350 353 353 350 340 322 307 302 303 311 324 326 314 301 296 297 297 300 305 307 307 311 316 317 314 314 317 319 319 318 315 307 299 291 282 276 269
349 354 335 325 339 353 352 347 345 345 354 8 11 4 5 13 16 16 16 14 10 8 8 6 2 1 3 4 5 5 5 3 2 3 3 2 0 358 356 355 353 350 346 346 348 350 347 343 349 357 357 348 336 321 307 299 298 303 314 320 312 304 299 297 299 303 304 303 304 308 313 316 317 319 322 325 325 324 322 317 310 301 290 281 271
341 347 333 329 342 350 345 341 342 345 357 10 7 354 355 3 4 2 3 3 359 358 358 357 356 355 355 358 1 3 2 1 1 2 3 3 3 3 1 358 355 353 350 349 351 352 348 346 351 359 357 347 335 322 311 303 299 299 303 307 309 306 300 296 299 303 301 298 301 306 310 315 322 327 332 334 332 330 329 324 319 310 302 291 278
333 338 335 332 336 338 336 339 342 348 359 5 359 350 349 351 350 349 350 348 346 347 349 350 350 350 348 348 351 354 357 357 356 358 0 2 3 5 5 2 359 356 354 353 354 354 353 352 357 1 359 351 338 324 314 307 301 298 296 297 301 303 298 295 298 301 297 295 299 301 304 311 321 328 335 337 336 336 335 330 324 318 309 301 289
328 333 331 326 325 329 335 339 344 351 358 357 352 348 346 345 343 342 341 338 337 340 344 346 347 347 345 343 342 344 348 351 352 354 357 358 360 2 3 2 360 357 355 355 355 355 354 355 358 360 359 354 343 327 313 304 297 294 294 294 294 294 292 292 295 296 294 294 296 295 297 303 310 317 326 333 335 337 337 334 329 322 313 307 298
322 322 319 318 321 327 335 339 343 348 355 357 354 350 346 342 338 334 333 332 333 336 339 341 342 342 341 339 338 337 340 344 347 349 350 352 355 358 360 359 358 356 355 356 357 357 356 356 355 353 352 349 342 331 317 304 295 291 292 293 293 287 283 286 291 293 293 293 293 292 293 297 302 308 317 322 327 332 335 334 330 322 314 308 301
308 309 310 313 319 324 331 337 338 342 351 357 354 347 341 337 332 327 325 327 328 330 332 335 337 338 337 335 334 335 336 338 341 343 344 346 349 353 356 356 355 354 355 356 357 357 357 356 353 348 344 340 336 329 320 312 304 297 293 293 293 287 280 282 287 290 291 291 291 291 291 293 296 301 307 312 317 324 329 331 328 321 314 307 299
305 304 304 308 312 318 325 328 328 334 346 350 345 339 336 332 327 323 321 321 321 326 330 333 334 335 335 333 332 333 333 334 336 339 341 343 345 347 350 351 351 351 353 355 356 356 355 353 350 345 341 338 333 326 321 318 314 308 300 297 296 291 284 283 285 287 288 290 291 291 290 291 293 296 300 304 309 314 321 326 326 320 312 304 295
307 303 299 300 302 304 311 319 326 337 344 341 336 332 329 324 320 319 320 322 324 329 331 331 330 331 332 331 331 331 332 333 334 335 337 339 340 342 344 346 345 345 348 352 354 354 352 350 346 343 342 340 334 326 321 319 317 313 308 303 301 297 292 289 289 289 289 289 290 290 290 291 293 295 297 299 302 306 312 319 321 317 310 301 291
308 301 296 294 291 292 304 322 335 339 336 331 329 326 321 316 314 315 320 327 332 332 332 331 329 328 327 328 329 330 332 334 334 332 331 333 336 339 341 341 340 341 345 349 351 350 348 347 344 341 341 342 337 328 322 319 317 315 312 308 303 301 298 293 291 291 291 289 289 289 290 292 294 295 296 296 298 301 305 310 313 312 308 300 290
312 305 295 287 286 295 311 329 337 332 327 325 326 324 320 316 315 318 326 335 337 336 334 333 331 328 327 327 328 329 331 333 334 331 329 331 336 339 339 338 338 340 342 346 346 345 344 344 344 342 343 344 341 332 322 317 314 312 312 311 308 304 301 297 295 293 292 290 290 290 290 291 293 294 294 295 295 297 300 304 307 308 306 299 291
319 307 291 285 292 308 324 332 330 326 324 323 323 321 319 318 319 324 333 338 338 338 338 336 334 332 330 327 326 327 329 331 333 331 329 332 337 339 338 337 337 338 340 342 343 341 340 342 343 344 345 347 344 333 319 313 311 310 310 313 313 311 308 305 301 297 293 289 288 289 289 290 291 292 293 293 294 295 297 299 301 303 303 298 290
319 304 292 293 305 319 324 322 321 321 323 326 325 321 319 321 323 324 329 333 335 337 341 342 341 337 333 328 326 326 327 330 332 330 328 330 333 335 336 336 336 336 338 340 340 340 340 342 345 347 347 347 342 329 314 309 308 308 309 312 314 315 315 314 310 305 299 294 291 289 288 288 290 290 291 292 293 294 294 296 297 299 299 295 288
312 300 294 295 302 309 312 315 318 320 325 332 333 328 321 323 326 324 326 333 336 337 340 342 342 339 337 333 330 329 329 332 332 330 326 325 328 332 335 337 335 334 336 338 339 340 342 345 348 349 349 347 339 324 311 306 305 305 308 312 314 316 318 317 315 311 306 301 297 294 291 288 288 288 289 290 291 291 292 294 295 295 295 292 287
Height
3172 3172 3172 3171 3169 3167 3164 3161 3158 3155 3152 3149 3148 3147 3145 3143 3141 3139 3137 3135 3134 3134 3134 3132 3130 3128 3127 3125 3124 3124 3122 3121 3120 3119 3117 3116 3115 3114 3114 3114 3113 3112 3111 3111 3111 3111 3111 3111 3111 3111 3110 3111 3111 3111 3111 3111 3111 3111 3111 3111 3112 3113 3113 3113 3113 3113 3113 3113 3114 3115 3116 3117 3117 3117 3117 3118 3118 3119 3119 3119 3119 3120 3121 3123 3125
3171 3171 3170 3168 3166 3164 3161 3158 3155 3153 3150 3148 3146 3145 3144 3142 3140 3138 3135 3133 3132 3132 3132 3130 3128 3127 3126 3123 3122 3122 3121 3119 3119 3118 3116 3115 3114 3113 3113 3113 3112 3111 3110 3110 3109 3108 3108 3108 3109 3108 3108 3108 3109 3109 3109 3109 3109 3109 3109 3109 3110 3110 3111 3111 3111 3110 3111 3111 3112 3113 3114 3115 3116 3116 3116 3116 3117 3118 3118 3118 3118 3118 3119 3121 3122
3169 3169 3167 3166 3163 3161 3158 3155 3153 3151 3149 3147 3145 3143 3142 3140 3138 3136 3133 3131 3130 3130 3129 3128 3127 3126 3124 3122 3121 3120 3119 3118 3117 3116 3115 3114 3113 3112 3112 3112 3110 3109 3108 3108 3107 3106 3106 3106 3106 3106 3106 3105 3106 3106 3107 3107 3107 3107 3107 3107 3108 3108 3109 3109 3109 3109 3109 3109 3109 3111 3113 3114 3114 3114 3115 3115 3115 3115 3116 3117 3117 3117 3118 3119 3120
3167 3166 3164 3163 3161 3158 3156 3153 3150 3148 3147 3145 3143 3141 3140 3138 3136 3134 3131 3129 3128 3128 3127 3127 3125 3124 3122 3121 3119 3119 3118 3117 3116 3115 3114 3113 3112 3112 3111 3110 3109 3108 3107 3106 3105 3105 3105 3104 3104 3104 3103 3103 3103 3103 3104 3105 3104 3104 3104 3105 3105 3106 3107 3107 3107 3107 3107 3107 3107 3109 3110 3111 3111 3112 3112 3113 3113 3113 3114 3115 3115 3116 3116 3117 3118
3165 3163 3161 3160 3158 3156 3154 3151 3147 3145 3144 3143 3141 3140 3138 3136 3134 3132 3129 3127 3126 3126 3126 3125 3124 3122 3120 3119 3118 3117 3117 3115 3114 3113 3112 3112 3111 3111 3110 3109 3108 3107 3106 3105 3104 3104 3103 3103 3102 3102 3101 3101 3101 3101 3101 3102 3102 3102 3102 3102 3102 3103 3104 3105 3105 3105 3105 3105 3106 3107 3108 3109 3110 3110 3110 3111 3111 3112 3112 3113 3113 3114 3114 3114 3115
3162 3160 3158 3157 3155 3154 3152 3149 3146 3143 3142 3140 3139 3137 3136 3134 3133 3131 3128 3126 3125 3125 3125 3124 3122 3120 3119 3118 3117 3116 3115 3114 3113 3112 3111 3111 3110 3110 3109 3108 3107 3106 3105 3104 3104 3103 3103 3102 3101 3100 3099 3099 3099 3099 3099 3099 3099 3099 3099 3099 3100 3101 3102 3102 3103 3103 3103 3103 3104 3105 3106 3107 3107 3108 3109 3109 3110 3110 3111 3111 3112 3112 3112 3113 3114
3161 3158 3156 3153 3152 3151 3150 3147 3144 3142 3139 3137 3136 3135 3134 3133 3132 3130 3128 3126 3123 3123 3124 3123 3121 3119 3118 3117 3116 3115 3114 3113 3112 3111 3111 3110 3110 3109 3108 3107 3106 3105 3104 3103 3103 3102 3102 3101 3100 3099 3099 3098 3098 3097 3097 3097 3097 3097 3097 3097 3098 3098 3099 3099 3100 3100 3101 3101 3102 3103 3104 3104 3105 3106 3107 3107 3108 3109 3109 3109 3110 3110 3111 3112 3113
3159 3157 3154 3152 3150 3149 3147 3146 3143 3140 3138 3136 3135 3133 3132 3131 3130 3128 3127 3126 3123 3121 3121 3121 3119 3118 3117 3117 3116 3114 3113 3112 3111 3111 3110 3109 3109 3108 3107 3106 3105 3104 3103 3103 3102 3102 3101 3100 3099 3099 3098 3098 3097 3096 3096 3095 3095 3095 3095 3095 3095 3096 3096 3097 3097 3097 3098 3099 3100 3101 3102 3102 3103 3103 3104 3105 3106 3106 3107 3107 3108 3108 3109 3110 3111
3157 3154 3152 3150 3148 3147 3146 3144 3142 3139 3137 3135 3133 3132 3130 3128 3128 3126 3126 3124 3122 3120 3119 3119 3118 3117 3116 3115 3115 3114 3113 3112 3111 3110 3109 3109 3108 3107 3106 3105 3104 3103 3103 3102 3101 3101 3100 3099 3098 3098 3098 3097 3096 3095 3095 3095 3094 3094 3094 3093 3093 3093 3094 3094 3094 3094 3095 3096 3097 3098 3099 3100 3100 3101 3101 3102 3103 3103 3104 3105 3105 3106 3106 3108 3109
3155 3152 3150 3148 3146 3145 3144 3143 3140 3138 3136 3134 3132 3130 3129 3127 3126 3125 3124 3123 3122 3120 3119 3118 3117 3116 3116 3115 3114 3113 3113 3112 3111 3110 3109 3108 3107 3106 3105 3104 3103 3103 3102 3101 3100 3100 3099 3098 3097 3097 3097 3096 3095 3094 3094 3093 3093 3092 3092 3092 3092 3092 3092 3092 3092 3092 3092 3093 3094 3095 3096 3097 3098 3098 3098 3099 3100 3101 3101 3102 3103 3103 3104 3105 3107
3153 3152 3149 3147 3144 3143 3142 3141 3139 3137 3135 3133 3131 3130 3128 3127 3126 3125 3124 3123 3122 3121 3119 3118 3117 3116 3116 3115 3114 3113 3112 3111 3110 3109 3108 3107 3107 3105 3104 3103 3102 3102 3101 3100 3099 3098 3097 3097 3096 3096 3095 3095 3094 3093 3093 3092 3092 3091 3091 3090 3090 3090 3090 3090 3090 3090 3091 3091 3092 3092 3093 3094 3095 3095 3096 3096 3097 3098 3098 3099 3100 3101 3101 3102 3104
3152 3150 3148 3145 3143 3141 3140 3139 3138 3136 3135 3133 3132 3130 3129 3127 3126 3125 3125 3124 3122 3121 3120 3119 3118 3117 3116 3115 3114 3113 3112 3111 3110 3109 3108 3107 3106 3105 3104 3103 3102 3101 3100 3099 3098 3097 3096 3095 3095 3094 3094 3093 3092 3092 3091 3091 3090 3090 3089 3089 3089 3088 3088 3088 3088 3088 3088 3089 3089 3090 3090 3091 3091 3092 3093 3094 3094 3095 3096 3097 3098 3099 3099 3100 3102
3150 3148 3146 3144 3142 3140 3139 3139 3138 3136 3135 3134 3132 3131 3129 3128 3127 3126 3125 3124 3123 3122 3121 3120 3119 3118 3117 3115 3114 3113 3112 3111 3110 3108 3107 3106 3105 3105 3104 3102 3101 3100 3098 3097 3097 3095 3095 3094 3093 3093 3092 3092 3091 3090 3090 3090 3089 3089 3088 3088 3088 3087 3087 3087 3087 3086 3086 3086 3087 3088 3088 3089 3089 3090 3090 3091 3092 3092 3093 3094 3095 3096 3097 3098 3099
3148 3146 3145 3143 3142 3140 3139 3138 3137 3136 3135 3134 3132 3131 3129 3128 3127 3126 3125 3124 3123 3122 3121 3120 3119 3119 3117 3116 3115 3114 3112 3111 3110 3109 3107 3106 3105 3104 3103 3102 3100 3099 3098 3096 3096 3095 3093 3093 3092 3091 3090 3090 3089 3089 3088 3088 3088 3087 3087 3086 3086 3086 3086 3085 3085 3085 3085 3085 3085 3086 3087 3087 3088 3088 3088 3089 3089 3090 3090 3091 3092 3093 3094 3095 3096
3147 3145 3144 3143 3141 3140 3139 3138 3137 3136 3135 3134 3133 3131 3130 3129 3128 3127 3126 3125 3124 3123 3122 3121 3120 3119 3118 3117 3116 3115 3113 3112 3110 3109 3108 3106 3104 3103 3102 3101 3100 3098 3097 3096 3095 3094 3092 3091 3091 3090 3089 3088 3088 3087 3086 3086 3086 3086 3085 3085 3085 3085 3084 3084 3083 3083 3084 3084 3084 3084 3085 3086 3086 3086 3086 3086 3087 3088 3089 3089 3090 3091 3091 3092 3093
3146 3144 3143 3142 3141 3139 3138 3137 3136 3135 3135 3134 3133 3132 3130 3129 3128 3127 3126 3125 3124 3123 3122 3122 3121 3120 3118 3117 3116 3115 3114 3113 3111 3110 3108 3106 3105 3103 3102 3101 3099 3097 3096 3094 3094 3093 3091 3090 3089 3088 3087 3087 3086 3086 3085 3085 3084 3084 3084 3084 3083 3083 3083 3082 3082 3082 3082 3082 3082 3083 3083 3084 3084 3084 3084 3085 3086 3086 3086 3087 3088 3088 3088 3089 3090
3145 3144 3143 3142 3140 3139 3138 3137 3136 3135 3134 3133 3132 3132 3131 3130 3129 3128 3127 3126 3125 3124 3123 3122 3121 3120 3119 3118 3117 3116 3114 3113 3112 3110 3108 3107 3105 3103 3101 3100 3098 3097 3095 3093 3092 3092 3091 3089 3088 3087 3086 3085 3085 3084 3084 3083 3083 3083 3082 3082 3082 3081 3081 3081 3080 3080 3080 3080 3080 3081 3081 3081 3081 3081 3082 3083 3084 3084 3084 3085 3085 3086 3086 3086 3086
3144 3143 3142 3141 3140 3139 3137 3136 3135 3135 3134 3133 3133 3132 3131 3130 3129 3129 3128 3127 3126 3125 3124 3123 3122 3121 3120 3118 3117 3116 3115 3113 3112 3110 3108 3107 3105 3103 3101 3099 3097 3096 3094 3092 3091 3090 3089 3088 3087 3086 3085 3084 3083 3083 3082 3082 3081 3081 3081 3081 3080 3080 3079 3079 3079 3079 3078 3078 3079 3079 3080 3079 3079 3079 3080 3081 3081 3082 3082 3082 3083 3083 3083 3084 3084
3144 3143 3141 3140 3139 3138 3137 3136 3135 3134 3134 3134 3133 3132 3131 3131 3130 3129 3128 3127 3126 3125 3125 3124 3122 3121 3120 3119 3117 3116 3115 3113 3112 3110 3108 3106 3104 3102 3100 3098 3096 3095 3093 3090 3089 3089 3088 3087 3086 3085 3084 3083 3082 3081 3080 3080 3080 3080 3079 3079 3079 3078 3078 3078 3077 3077 3077 3077 3077 3078 3078 3077 3077 3077 3077 3078 3079 3080 3080 3081 3081 3081 3081 3081 3082
3144 3142 3141 3139 3138 3137 3136 3135 3135 3135 3134 3134 3133 3132 3132 3131 3130 3129 3129 3128 3127 3126 3125 3124 3123 3122 3120 3119 3118 3116 3115 3113 3111 3110 3108 3106 3104 3102 3100 3098 3096 3094 3092 3090 3088 3087 3087 3086 3085 3084 3083 3082 3081 3080 3079 3079 3078 3078 3077 3077 3077 3077 3076 3076 3076 3076 3075 3076 3076 3076 3076 3075 3075 3075 3075 3076 3076 3077 3078 3079 3078 3078 3079 3079 3079
3143 3141 3140 3138 3137 3137 3136 3135 3135 3135 3134 3134 3133 3133 3132 3131 3131 3130 3129 3129 3128 3127 3126 3125 3123 3122 3121 3120 3118 3116 3115 3113 3111 3109 3108 3106 3104 3101 3099 3097 3095 3093 3091 3089 3087 3086 3085 3085 3084 3083 3083 3082 3080 3079 3078 3077 3077 3077 3076 3076 3076 3075 3075 3075 3075 3074 3074 3074 3074 3074 3074 3074 3074 3074 3074 3074 3074 3074 3076 3076 3076 3076 3076 3076 3077
3142 3141 3140 3138 3137 3137 3136 3135 3135 3135 3134 3134 3133 3133 3132 3132 3131 3131 3130 3129 3128 3127 3126 3125 3124 3123 3121 3120 3119 3117 3115 3113 3112 3110 3107 3105 3103 3101 3098 3096 3094 3092 3090 3088 3086 3085 3084 3083 3083 3082 3081 3080 3079 3078 3077 3076 3076 3076 3075 3075 3074 3074 3073 3073 3073 3073 3072 3073 3073 3072 3072 3073 3073 3073 3073 3072 3072 3072 3073 3074 3074 3074 3074 3075 3075
3142 3141 3140 3139 3138 3137 3136 3136 3136 3135 3134 3134 3133 3133 3133 3132 3132 3131 3130 3129 3129 3128 3127 3125 3124 3123 3121 3120 3119 3117 3115 3113 3111 3110 3107 3105 3103 3100 3098 3096 3093 3091 3089 3087 3086 3084 3083 3082 3082 3081 3080 3079 3078 3077 3076 3075 3075 3075 3074 3073 3073 3072 3072 3072 3072 3071 3071 3071 3071 3071 3071 3071 3071 3071 3071 3071 3070 3070 3070 3071 3072 3072 3072 3073 3074
3143 3142 3141 3140 3139 3138 3137 3137 3136 3136 3135 3134 3134 3134 3133 3133 3132 3131 3130 3129 3128 3127 3126 3125 3124 3123 3121 3120 3118 3116 3115 3112 3111 3109 3107 3104 3102 3100 3098 3095 3092 3090 3088 3086 3085 3084 3083 3082 3081 3080 3079 3078 3077 3076 3075 3074 3074 3073 3073 3072 3071 3071 3071 3071 3070 3070 3070 3070 3070 3069 3069 3069 3069 3069 3069 3069 3069 3069 3069 3069 3070 3070 3070 3071 3072
3144 3143 3142 3141 3140 3139 3138 3138 3137 3136 3135 3135 3134 3134 3133 3132 3132 3131 3130 3129 3128 3127 3126 3124 3123 3122 3121 3119 3117 3116 3114 3112 3110 3108 3106 3104 3102 3099 3097 3094 3092 3090 3087 3085 3084 3083 3082 3081 3080 3079 3078 3077 3076 3075 3074 3074 3073 3072 3072 3071 3071 3070 3070 3070 3069 3069 3069 3069 3068 3068 3068 3068 3068 3067 3067 3068 3068 3067 3067 3067 3068 3068 3068 3069 3070
3145 3144 3143 3142 3141 3140 3139 3138 3137 3136 3136 3135 3134 3134 3133 3132 3131 3130 3129 3128 3127 3126 3125 3124 3122 3121 3120 3118 3116 3115 3113 3111 3109 3107 3105 3103 3101 3099 3097 3094 3092 3090 3087 3085 3084 3083 3082 3081 3080 3078 3077 3077 3076 3075 3074 3073 3072 3072 3071 3070 3070 3069 3069 3068 3068 3068 3068 3068 3068 3067 3066 3066 3066 3066 3066 3066 3066 3066 3066 3066 3066 3066 3067 3067 3068
3146 3145 3143 3142 3141 3140 3139 3138 3138 3137 3136 3135 3134 3133 3132 3131 3130 3129 3128 3127 3126 3125 3124 3123 3122 3120 3119 3117 3116 3114 3112 3110 3109 3107 3105 3103 3101 3099 3096 3094 3092 3090 3087 3085 3083 3082 3081 3080 3079 3078 3077 3076 3075 3074 3073 3072 3072 3071 3071 3070 3069 3069 3068 3068 3068 3067 3067 3067 3066 3066 3065 3065 3065 3064 3065 3065 3065 3065 3065 3064 3065 3065 3065 3065 3065
3146 3145 3144 3143 3142 3141 3140 3139 3138 3137 3136 3135 3134 3133 3132 3131 3130 3129 3127 3126 3125 3124 3123 3122 3121 3119 3118 3117 3115 3114 3111 3109 3107 3105 3103 3102 3100 3098 3096 3094 3092 3090 3088 3086 3083 3082 3081 3080 3078 3077 3076 3075 3074 3073 3073 3072 3072 3071 3070 3070 3069 3068 3068 3067 3067 3066 3066 3066 3065 3065 3064 3064 3064 3064 3064 3064 3064 3064 3063 3063 3063 3063 3063 3063 3062
3146 3145 3144 3143 3142 3141 3140 3139 3137 3137 3136 3135 3134 3132 3131 3130 3129 3128 3127 3126 3124 3123 3122 3121 3120 3118 3117 3116 3114 3113 3111 3109 3106 3104 3103 3101 3099 3098 3096 3094 3091 3089 3088 3086 3083 3082 3081 3079 3078 3077 3076 3074 3073 3073 3072 3072 3071 3071 3070 3070 3069 3068 3068 3067 3066 3066 3065 3065 3064 3064 3063 3063 3063 3063 3063 3062 3062 3062 3061 3062 3062 3061 3061 3061 3060
3146 3145 3144 3143 3142 3141 3140 3139 3137 3137 3136 3134 3133 3132 3131 3130 3129 3128 3126 3125 3124 3123 3121 3120 3119 3117 3116 3115 3113 3111 3110 3108 3106 3104 3102 3100 3099 3097 3095 3093 3091 3089 3087 3085 3083 3082 3081 3079 3078 3077 3075 3074 3073 3072 3072 3072 3071 3070 3070 3069 3069 3068 3068 3067 3066 3066 3065 3064 3064 3063 3063 3062 3062 3062 3061 3061 3060 3060 3060 3060 3060 3060 3060 3059 3059
3146 3145 3144 3143 3142 3141 3140 3139 3137 3136 3136 3135 3133 3132 3131 3130 3128 3127 3126 3125 3123 3122 3120 3119 3118 3116 3115 3114 3112 3110 3108 3107 3105 3103 3102 3100 3098 3096 3094 3093 3091 3089 3087 3085 3083 3081 3080 3079 3078 3077 3075 3074 3073 3072 3072 3071 3071 3070 3070 3069 3069 3068 3067 3067 3066 3065 3065 3064 3063 3063 3062 3061 3061 3060 3060 3059 3059 3059 3059 3058 3059 3059 3058 3058 3057
3146 3145 3144 3143 3142 3141 3140 3139 3138 3137 3136 3135 3133 3132 3131 3130 3128 3127 3125 3124 3123 3121 3120 3118 3117 3115 3114 3112 3111 3109 3107 3106 3104 3103 3101 3099 3097 3095 3094 3092 3090 3088 3087 3085 3083 3081 3080 3079 3078 3077 3075 3074 3073 3072 3071 3071 3071 3070 3070 3069 3068 3068 3067 3067 3066 3065 3064 3064 3063 3062 3062 3061 3060 3059 3059 3058 3058 3058 3057 3057 3057 3057 3057 3056 3055
3146 3145 3144 3144 3142 3141 3140 3139 3138 3137 3136 3135 3133 3132 3131 3129 3128 3126 3125 3123 3122 3120 3119 3117 3116 3114 3113 3111 3110 3108 3107 3105 3103 3102 3100 3098 3096 3094 3093 3092 3090 3088 3086 3085 3083 3081 3079 3078 3077 3076 3075 3073 3072 3072 3071 3071 3070 3070 3070 3069 3068 3067 3067 3066 3065 3065 3064 3063 3062 3062 3061 3060 3059 3059 3058 3057 3057 3056 3056 3055 3056 3056 3056 3055 3054
3146 3145 3144 3143 3142 3141 3139 3138 3137 3136 3135 3134 3132 3131 3129 3128 3127 3125 3124 3123 3121 3120 3118 3117 3115 3114 3112 3110 3109 3107 3106 3104 3102 3101 3099 3097 3095 3094 3092 3091 3089 3088 3086 3084 3082 3080 3079 3078 3076 3075 3074 3073 3072 3071 3071 3070 3070 3069 3069 3069 3068 3067 3066 3065 3064 3064 3063 3062 3062 3061 3060 3060 3059 3058 3057 3056 3056 3055 3055 3054 3054 3054 3054 3053 3052
3145 3144 3144 3143 3142 3140 3139 3138 3137 3135 3134 3133 3131 3130 3128 3126 3125 3124 3123 3121 3120 3119 3117 3116 3114 3113 3111 3109 3108 3106 3105 3103 3102 3100 3099 3097 3095 3093 3091 3090 3089 3087 3085 3084 3082 3080 3079 3077 3076 3074 3073 3072 3071 3070 3070 3069 3069 3068 3068 3068 3067 3066 3065 3065 3064 3063 3062 3061 3060 3060 3059 3059 3058 3057 3056 3055 3055 3054 3053 3053 3052 3052 3052 3051 3050
3145 3144 3143 3142 3141 3140 3139 3138 3136 3134 3133 3132 3130 3128 3127 3125 3124 3123 3122 3120 3119 3118 3116 3114 3113 3112 3111 3109 3107 3106 3104 3103 3101 3099 3098 3096 3095 3093 3091 3089 3088 3086 3085 3083 3082 3080 3078 3077 3075 3074 3072 3071 3070 3069 3068 3068 3067 3067 3066 3066 3066 3065 3064 3063 3063 3062 3061 3060 3059 3058 3058 3057 3057 3056 3055 3054 3053 3053 3052 3051 3051 3050 3050 3049 3049
3144 3143 3142 3141 3141 3140 3138 3137 3135 3134 3133 3131 3129 3127 3126 3125 3124 3122 3121 3120 3118 3117 3115 3114 3112 3111 3110 3109 3107 3105 3103 3102 3101 3099 3098 3096 3094 3093 3091 3089 3087 3085 3084 3082 3081 3079 3078 3076 3075 3073 3071 3070 3069 3068 3067 3066 3066 3066 3065 3065 3065 3064 3063 3062 3061 3061 3060 3059 3058 3057 3057 3056 3055 3055 3054 3053 3052 3051 3050 3050 3049 3049 3048 3048 3048
3144 3143 3142 3141 3140 3139 3137 3136 3135 3133 3132 3130 3129 3127 3126 3125 3123 3122 3120 3119 3118 3116 3115 3114 3112 3111 3109 3108 3106 3104 3103 3102 3100 3099 3097 3096 3094 3092 3091 3088 3087 3085 3083 3081 3080 3079 3077 3076 3074 3072 3070 3069 3068 3067 3066 3065 3065 3064 3064 3064 3064 3063 3062 3061 3060 3059 3059 3058 3057 3057 3056 3055 3054 3053 3053 3052 3051 3050 3049 3048 3047 3047 3047 3046 3046
3143 3142 3141 3139 3138 3137 3136 3135 3134 3132 3131 3129 3128 3127 3126 3124 3123 3121 3120 3119 3117 3116 3115 3113 3112 3110 3109 3107 3106 3104 3102 3101 3100 3099 3097 3095 3093 3091 3089 3087 3086 3084 3082 3080 3079 3077 3076 3075 3073 3071 3069 3068 3067 3066 3065 3064 3063 3063 3063 3062 3062 3062 3061 3060 3059 3059 3058 3057 3056 3056 3055 3055 3054 3052 3052 3051 3049 3048 3048 3047 3046 3046 3045 3045 3044
3142 3141 3140 3138 3137 3136 3135 3134 3133 3131 3130 3128 3127 3127 3125 3124 3123 3121 3120 3118 3117 3116 3114 3113 3111 3110 3108 3107 3105 3104 3102 3101 3100 3098 3097 3095 3093 3091 3089 3087 3085 3083 3081 3079 3077 3076 3075 3073 3071 3070 3068 3067 3066 3065 3063 3062 3062 3061 3061 3060 3060 3060 3059 3058 3058 3057 3057 3056 3055 3054 3054 3054 3053 3052 3050 3049 3048 3047 3046 3046 3045 3044 3044 3043 3043
3140 3139 3138 3137 3136 3135 3134 3133 3132 3130 3129 3127 3126 3126 3125 3124 3122 3121 3119 3117 3116 3115 3113 3112 3110 3109 3107 3106 3105 3103 3102 3101 3099 3097 3096 3094 3091 3090 3088 3086 3084 3082 3080 3078 3076 3075 3073 3072 3070 3068 3067 3066 3065 3064 3062 3061 3060 3059 3059 3059 3059 3058 3057 3057 3056 3056 3055 3055 3054 3053 3053 3052 3052 3051 3050 3048 3047 3046 3045 3044 3044 3043 3042 3042 3041
3138 3137 3136 3135 3135 3134 3133 3132 3131 3129 3128 3126 3126 3125 3124 3123 3121 3119 3118 3116 3115 3113 3112 3110 3109 3107 3106 3105 3103 3102 3101 3099 3098 3096 3094 3092 3090 3089 3087 3085 3083 3081 3079 3077 3075 3074 3072 3070 3068 3067 3066 3065 3064 3063 3061 3060 3059 3058 3057 3057 3057 3056 3055 3055 3055 3055 3054 3053 3053 3052 3052 3051 3050 3050 3049 3048 3046 3045 3044 3043 3043 3042 3041 3041 3040
3137 3136 3135 3134 3133 3133 3132 3131 3129 3128 3127 3126 3125 3124 3123 3122 3120 3118 3117 3115 3113 3112 3110 3109 3107 3106 3104 3103 3101 3100 3099 3097 3096 3094 3093 3091 3089 3088 3086 3084 3082 3080 3078 3076 3074 3073 3071 3069 3067 3066 3065 3064 3063 3061 3060 3059 3058 3057 3056 3055 3055 3055 3054 3053 3053 3053 3052 3052 3051 3051 3050 3050 3049 3048 3048 3047 3046 3045 3044 3043 3042 3041 3040 3040 3039
3136 3135 3134 3133 3132 3131 3130 3129 3128 3127 3126 3125 3124 3123 3122 3121 3119 3117 3115 3113 3112 3110 3109 3107 3106 3104 3103 3101 3099 3098 3096 3095 3094 3092 3091 3089 3088 3086 3085 3083 3081 3079 3077 3075 3073 3071 3069 3068 3066 3065 3064 3063 3062 3060 3059 3057 3056 3055 3054 3054 3053 3053 3052 3051 3051 3051 3051 3050 3050 3049 3049 3048 3048 3047 3046 3046 3045 3044 3043 3042 3040 3040 3039 3038 3038
3134 3133 3132 3132 3131 3130 3129 3128 3127 3126 3125 3124 3123 3123 3122 3120 3118 3116 3114 3112 3111 3109 3108 3106 3104 3103 3101 3100 3098 3096 3095 3093 3092 3090 3089 3088 3086 3085 3083 3082 3080 3078 3076 3074 3072 3070 3068 3067 3066 3064 3063 3062 3060 3058 3057 3055 3054 3053 3052 3052 3051 3051 3050 3050 3049 3049 3049 3048 3048 3048 3047 3047 3046 3046 3045 3044 3043 3043 3042 3041 3039 3038 3038 3037 3037
3133 3131 3131 3130 3129 3128 3128 3127 3126 3125 3124 3124 3123 3122 3121 3119 3117 3115 3113 3112 3110 3108 3106 3105 3103 3101 3100 3098 3097 3095 3094 3092 3090 3088 3087 3086 3084 3083 3081 3080 3078 3077 3075 3073 3071 3069 3068 3066 3065 3063 3062 3060 3059 3057 3055 3054 3053 3052 3051 3050 3050 3049 3049 3048 3048 3047 3047 3047 3046 3046 3045 3045 3044 3044 3043 3043 3042 3041 3040 3039 3038 3037 3036 3036 3035
3131 3130 3129 3128 3128 3127 3126 3126 3125 3124 3123 3123 3122 3121 3120 3118 3116 3114 3112 3110 3108 3107 3105 3103 3102 3100 3098 3097 3096 3094 3092 3091 3089 3087 3086 3084 3083 3081 3080 3078 3077 3075 3074 3072 3070 3068 3067 3065 3064 3062 3061 3059 3057 3055 3054 3053 3052 3050 3050 3049 3048 3047 3047 3046 3046 3045 3045 3045 3045 3044 3044 3043 3042 3042 3041 3041 3040 3040 3039 3038 3037 3036 3035 3035 3034
3130 3129 3128 3127 3126 3126 3125 3124 3124 3123 3123 3122 3121 3120 3118 3116 3114 3113 3111 3109 3107 3105 3104 3102 3100 3099 3097 3095 3094 3092 3090 3089 3087 3085 3084 3082 3081 3079 3078 3077 3075 3074 3072 3070 3069 3067 3066 3064 3062 3061 3059 3057 3055 3054 3052 3051 3050 3049 3048 3047 3047 3046 3045 3045 3044 3044 3043 3043 3042 3042 3041 3041 3041 3040 3040 3039 3039 3038 3037 3037 3035 3034 3034 3033 3032
3128 3128 3127 3126 3125 3125 3124 3123 3123 3123 3122 3121 3120 3118 3116 3115 3113 3112 3110 3108 3107 3105 3103 3101 3099 3097 3095 3094 3092 3090 3088 3087 3085 3083 3081 3080 3079 3078 3076 3075 3074 3072 3070 3069 3067 3066 3064 3062 3061 3059 3057 3056 3054 3052 3051 3050 3049 3048 3047 3046 3045 3044 3044 3043 3042 3042 3041 3041 3040 3040 3039 3039 3038 3038 3038 3037 3037 3036 3036 3035 3034 3033 3032 3032 3031
3127 3126 3125 3124 3124 3123 3122 3122 3122 3122 3121 3120 3118 3117 3115 3113 3112 3111 3109 3108 3106 3104 3102 3100 3098 3096 3094 3092 3090 3088 3087 3085 3083 3081 3079 3078 3077 3076 3075 3074 3072 3071 3069 3067 3066 3064 3062 3061 3059 3057 3056 3054 3053 3051 3050 3048 3047 3046 3046 3045 3044 3043 3042 3041 3041 3040 3039 3039 3038 3038 3037 3037 3036 3036 3035 3035 3034 3034 3033 3033 3032 3031 3031 3030 3029
3125 3124 3123 3123 3122 3121 3121 3121 3121 3121 3119 3118 3117 3115 3113 3112 3111 3109 3108 3106 3104 3102 3101 3099 3097 3095 3093 3091 3088 3087 3085 3083 3082 3080 3078 3077 3075 3074 3073 3072 3070 3069 3067 3066 3064 3062 3061 3059 3058 3056 3055 3053 3052 3050 3048 3047 3046 3045 3044 3043 3042 3041 3041 3040 3039 3038 3037 3037 3036 3036 3035 3035 3034 3034 3033 3033 3032 3032 3031 3031 3030 3029 3029 3028 3028